Погода в Сан-Педро

Белиз     18°59′14″N   88°55′22″W
темп.,
°C
ветер,
м/с
пор.,
м/с
влажн.,
%
обл.,
%
осадки,
мм/ч
давл.,
гПа
погр.,
м
3 марта, ср
ср300:00+21юз00997 0.0 101523
03:00+20зюз1110027 0.0 101423
06:00+19ююв1110031 0.0 101550
09:00+28юв136433 0.0 1017791
12:00+33юв223324 0.0 10162070
15:00+33вюв223332 0.0 10132448
18:00+28юв124845 0.0 101444
21:00+23юв157519 0.0 1016191
4 марта, чт
чт400:00+20ю01899 0.0 101723
03:00+18вюв01970 0.0 101623
06:00+18вюв01990 0.0 101623
09:00+27ююв23610 0.0 1018655
12:00+34вюв22330 0.0 10162253
15:00+34вюв223152 0.0 10132600
18:00+29в264874 0.0 1013413
21:00+23юв286915 0.0 1015279
5 марта, пт
пт500:00+19с11908 0.0 101435
03:00+18св00990 0.0 101323
06:00+18юв01991 0.0 101323
09:00+27юв24622 0.0 1015841
12:00+32юв34401 0.0 10121845
15:00+32юв334253 0.0 10091991
18:00+28вюв275458 0.0 1010544
21:00+23юв28751 0.0 1012320
6 марта, сб
сб600:00+19юв13950 0.0 1012115
03:00+18сз01999 0.0 101223
06:00+18зюз019916 0.0 101323
09:00+27ю146525 0.0 1015781
12:00+34ююв113522 0.0 10131973
15:00+32юз013771 0.0 10112143
18:00+28ссв135386 0.0 1011112
21:00+24ссз136766 0.0 101487
7 марта, вс
вс700:00+21с289760 0.3 1015349
03:00+19ссз159965 0.0 1014176
06:00+19ссз1510064 0.0 1015209
09:00+25с246961 0.0 1018669
12:00+30с225162 0.1 10161412
15:00+31с234377 0.1 10141833
18:00+28ссв265382 0.1 1015470
21:00+21в139027 0.3 1018104